Location: Saint Paul
(33.0412°N, 96.5503°W)
Time: 01:12:48
(UTC+00:00)

Daily predictions for brighter satellites

Satellite Brightness Start Highest point End
(mag) Time Altitude Azimuth Time Altitude Azimuth Time Altitude Azimuth
Cosmos 1697 Rocket 3.0 01:42:22 10° S 01:47:42 44° ESE 01:53:02 10° NE
Cosmos 841 Rocket 3.6 01:43:13 10° NNW 01:48:24 86° WSW 01:53:34 10° SSE
Gbstr 26 Del rocket 4.3 01:44:25 10° NW 01:51:57 70° NE 01:58:10 10° SE
Cosmos 2098 Rocket 2.0 01:50:04 10° N 01:53:02 86° W 01:55:53 10° S
Cosmos 2360 4.5 01:48:52 10° S 01:54:16 47° ESE 01:59:42 10° NNE
CSL-04 Debris 4.3 01:50:00 10° SSE 01:55:20 61° ENE 02:00:39 10° N
ATLAS 2AS CENTAUR R/B 3.7 01:51:52 10° SSE 01:58:23 30° ESE 02:04:51 10° NE
CZ-4B R/B 3.1 01:57:18 10° ENE 01:59:01 14° E 02:00:42 10° SE
deb Chang Zheng 4 3.5 01:54:58 10° SSE 01:59:05 89° WSW 02:03:14 10° NNW
Cosmos 2061 Rocket 4.4 01:53:45 10° SSW 01:59:54 68° W 02:06:05 10° N
Cosmos 1151 Rocket 2.9 01:56:39 10° S 02:00:54 70° E 02:05:09 10° NNE
USA 186 1.1 01:59:46 10° SSE 02:02:10 56° E 02:04:31 10° N
NOSS 3-4 (A) 3.5 01:57:43 10° SW 02:03:20 76° WNW 02:09:15 10° NNE
NOSS 3-4 (C) 3.5 01:57:44 10° SW 02:03:24 77° WNW 02:09:20 10° NNE
Cosmos 2297 Rocket 2.7 01:58:25 10° N 02:03:49 44° ENE 02:09:10 10° SE
OBJECT-B 0.9 02:02:19 10° S 02:05:11 66° W 02:08:04 10° NNW
Cosmos 1340 4.0 02:06:30 10° SE 02:09:19 21° E 02:12:09 10° NE
CZ-4 R/B 3.2 02:06:00 10° SSW 02:09:34 32° W 02:13:13 10° NNW
Cosmos 968 Rocket 4.0 02:05:25 10° SSW 02:10:31 63° WNW 02:15:36 10° N
Meteor 1-5 Rocket 4.1 02:07:18 10° N 02:12:39 86° E 02:17:56 10° S
Resurs 1-3 4.1 02:09:10 10° SE 02:13:16 42° ENE 02:17:25 10° N
NOSS 3-2 (A) 4.4 02:05:52 10° NNW 02:13:53 77° WSW 02:22:45 10° SSE
Cosmos 1666 Rocket 3.8 02:10:44 10° N 02:15:03 52° E 02:19:23 10° SSE
Cosmos 1805 Rocket 4.4 02:11:21 10° NNW 02:15:40 53° W 02:19:57 10° S
SJ-6B 2.7 02:12:02 10° SSE 02:15:51 79° ENE 02:19:38 10° N
H-2A R/B 2.5 02:12:21 10° SSE 02:16:46 83° ENE 02:21:04 10° N
SJ 16-02 2.9 02:15:43 13° SE 02:17:43 17° E 02:20:33 10° NE
Cosmos 1315 Rocket 2.9 02:16:25 10° N 02:20:24 56° E 02:24:06 11° SSE
Cosmos 1633 Rocket 3.2 02:18:45 10° N 02:23:00 51° E 02:26:50 12° SSE
Meteor 1-10 Rocket 4.1 02:18:09 10° S 02:23:40 81° E 02:29:16 10° N
Okean O Rocket 4.4 02:23:22 10° SW 02:25:50 15° W 02:28:18 10° WNW
Cosmos 1743 4.2 02:26:14 10° NNE 02:29:01 19° ENE 02:30:10 17° ESE
Sich 1 4.1 02:25:33 10° NNW 02:29:41 44° W 02:33:46 10° SSW
Meteor 1-27 Rocket 3.9 02:27:12 10° S 02:32:47 58° E 02:38:30 10° NNE
NOSS 3-2 (C) 4.2 02:25:10 10° NNW 02:33:11 85° ENE 02:40:53 15° SSE
Cosmos 1470 Rocket 4.1 02:30:36 10° N 02:34:38 38° E 02:37:01 21° SE
Cosmos 44 3.9 02:32:56 10° NW 02:37:03 44° WSW 02:40:58 11° S
OAO 3 Rocket 3.4 02:32:33 10° W 02:37:27 73° N 02:41:32 15° E
Cosmos 2278 4.3 02:32:53 10° SSE 02:37:51 33° ESE 02:42:52 10° NE
CENTAUR R/B 3.7 02:29:34 10° NW 02:38:06 63° WSW 02:46:59 10° SSE
Cosmos 2208 Rocket 4.0 02:34:31 10° NNW 02:39:58 87° ENE 02:44:20 16° SSE
Resurs 01 Rocket 2.1 02:39:25 22° SE 02:41:49 41° ENE 02:45:58 10° N
Cosmos 1515 Rocket 3.5 02:37:47 10° S 02:42:04 64° E 02:46:25 10° NNE
Ariane Rocket 3.8 02:40:49 21° ESE 02:43:29 35° ENE 02:48:05 10° N
Cosmos 2219 3.4 02:37:57 10° NNW 02:43:29 57° ENE 02:46:59 22° SE
Cosmos 2034 Rocket 4.5 02:42:42 17° SSE 02:47:01 41° E 02:52:53 10° NNE
IGS 5A 3.8 02:44:13 12° S 02:48:02 63° W 02:52:10 10° NNW
Cosmos 921 Rocket 4.4 02:48:03 10° NNE 02:51:41 23° ENE 02:52:48 21° E
PSLV R/B 4.2 02:47:42 10° N 02:51:43 69° WNW 02:55:42 10° SSW
Landsat 7 3.8 02:48:06 17° SSE 02:51:45 88° WSW 02:56:29 10° NNW
Cosmos 2263 Rocket 4.0 02:48:49 10° NNE 02:52:07 16° ENE 02:54:16 13° E
USA 238 DEB 4.1 02:45:43 10° NW 02:53:11 75° WSW 02:59:08 18° SSE
USA 238 4.1 02:45:50 10° NW 02:53:18 75° WSW 02:59:14 19° SSE
Okean-O 4.4 02:49:51 10° SSW 02:53:42 29° W 02:57:33 10° NW
SWIFT 4.3 02:51:48 10° SW 02:53:45 14° S 02:53:45 14° S
Meteor 1-11 Rocket 3.8 02:48:13 10° N 02:54:11 74° E 02:58:21 20° SSE
Cosmos 2228 Rocket 4.1 02:58:45 28° ESE 02:59:15 28° E 03:03:08 10° NNE
Aureole 1 Rocket 4.1 02:59:25 10° SW 03:02:34 32° WNW 03:05:22 10° N
Okean 1 3.7 03:02:18 39° ESE 03:02:55 42° E 03:06:43 10° NNE
Cosmos 2344 3.8 02:55:41 10° SW 03:03:34 70° WNW 03:10:58 10° NNE
IRAS Rocket 4.3 02:59:12 10° NNE 03:04:50 81° WNW 03:10:27 10° SSW
Cosmos 1536 2.7 03:03:27 10° N 03:07:29 81° E 03:08:52 40° SSE
RESURS DK-1 2.2 03:04:51 19° SSW 03:07:41 72° ESE 03:11:47 10° NNE
Cosmos 1184 Rocket 3.2 03:07:32 29° SSW 03:08:47 54° W 03:11:45 10° N
Cosmos 2227 Rocket 2.4 03:05:25 10° NNW 03:11:04 71° WSW 03:14:18 26° S
ASTRO E2 2.9 03:07:30 10° W 03:11:16 47° SSW 03:11:34 46° S
Cosmos 1980 Rocket 2.5 03:07:09 10° SSW 03:12:43 66° WNW 03:18:21 10° NNE
SL-4 R/B 2.7 03:08:23 10° NW 03:12:45 47° NE 03:13:57 36° E
Cosmos 1777 Rocket 3.9 03:13:05 27° S 03:15:47 62° ESE 03:20:57 10° NNE
Cosmos 1354 Rocket 4.2 03:12:20 10° SSW 03:17:34 74° WNW 03:22:52 10° NNE
H-2A R/B 4.2 03:14:39 10° NNW 03:17:59 24° WNW 03:21:20 10° SW
SPOT 3 Rocket 3.8 03:18:44 39° ESE 03:20:06 50° ENE 03:25:04 10° N
Cosmos 2322 Rocket 3.7 03:23:15 19° ENE 03:23:15 19° ENE 03:25:48 10° NE
IRS-1A Rocket 4.5 03:21:27 27° S 03:24:37 69° WSW 03:30:21 10° NNW
Meteor 2-4 Rocket 4.1 03:28:29 41° ESE 03:29:15 43° E 03:34:37 10° NNE
Cosmos 389 Rocket 2.7 03:26:46 10° NNW 03:30:14 60° W 03:30:24 59° WSW
CZ-4B R/B 4.0 03:28:16 10° NNW 03:30:31 18° WNW 03:32:43 10° WSW
Meteor 1-19 Rocket 4.1 03:29:12 29° S 03:32:05 86° W 03:37:31 10° N
Cosmos 1975 4.5 03:33:59 10° NNE 03:36:18 23° NE 03:36:18 23° NE
GENESIS II 4.4 03:39:23 62° NNE 03:39:23 62° NNE 03:42:41 10° NNE
MetOp-B 4.1 03:38:01 45° S 03:39:42 79° WSW 03:45:04 10° NNW
Helios 1A Rocket 3.3 03:43:33 51° NE 03:43:33 51° NE 03:46:55 10° N
Milstar 3 Cent rocket 4.4 03:29:19 10° W 03:44:03 35° SW 03:47:54 27° S
Cosmos 2297 Rocket 4.3 03:43:28 10° NW 03:47:25 20° W 03:51:08 11° SW
ATLAS 2AS CENTAUR R/B 3.7 03:41:26 10° SW 03:49:01 53° NW 03:56:29 10° NNE
Cosmos 1634 Rocket 4.0 03:48:30 54° SE 03:49:38 63° E 03:55:44 10° NNE
Cosmos 1092 Rocket 4.0 03:43:49 10° N 03:49:53 58° E 03:50:44 53° ESE
Nadezhda 4 Rocket 4.0 03:44:09 10° N 03:50:20 75° W 03:52:28 43° SSW
USA 81 4.3 03:51:32 51° ENE 03:51:32 51° ENE 03:56:22 10° NNE
Meteor 2-14 Rocket 4.3 03:45:09 10° N 03:51:16 88° W 03:52:52 52° S
ERS-1 Rocket 3.2 03:52:28 53° ENE 03:52:28 53° ENE 03:57:21 10° N
SJ 16-02 3.1 03:52:34 12° SW 03:55:57 30° WNW 03:59:50 10° N
OAO 1 4.3 03:51:08 10° WSW 03:56:39 77° SSE 03:56:43 77° SSE
Meteor 2-9 Rocket 4.2 03:52:56 10° N 03:58:40 80° W 03:59:35 63° SSW
CZ-2C R/B 3.7 03:55:57 10° NNE 04:00:43 86° WNW 04:00:43 86° WNW
SL-16 R/B 2.0 04:00:33 74° SE 04:00:52 76° ESE 04:06:32 10° NNE
Cosmos 1346 Rocket 4.1 04:11:56 38° N 04:11:56 38° N 04:14:29 10° N
Cosmos 2026 Rocket 3.8 04:08:32 10° N 04:14:45 81° E 04:15:15 75° SE
Timation 2 Rocket 4.4 04:09:08 10° NNW 04:15:43 63° WSW 04:17:03 52° SSW
Resurs 01 Rocket 4.1 04:16:57 12° WSW 04:18:26 13° W 04:20:34 10° WNW
ATLAS 3B R/B 3.7 04:13:42 10° NNW 04:20:36 39° NE 04:22:21 35° E
OAO 3 Rocket 4.3 04:16:07 10° W 04:19:18 38° W 04:19:18 38° W
Meteor 2-8 Rocket 4.4 04:21:06 65° SW 04:21:57 75° W 04:28:03 10° N
SPOT 5 3.3 04:22:35 64° W 04:22:35 64° W 04:27:42 10° NNW
Terra 2.2 04:23:27 59° N 04:23:27 59° N 04:27:19 10° N
Cosmos 2360 Rocket 3.2 04:27:32 36° NE 04:27:32 36° NE 04:31:01 10° NNE
ISS -0.8 04:25:02 10° NNW 04:25:58 15° N 04:25:58 15° N
Cosmos 2263 Rocket 2.5 04:30:57 10° NNW 04:35:57 59° W 04:35:57 59° W
Cosmos 1898 Rocket 4.5 04:52:43 42° NNE 04:52:43 42° NNE 04:56:13 10° NNE
Cosmos 2279 Rocket 4.2 04:51:40 62° W 04:51:47 62° W 04:57:56 10° N
ARIANE 5 R/B 4.4 05:01:18 29° NW 05:01:18 29° NW 05:03:50 10° NNW
ATLAS CENTAUR R/B 4.1 04:59:40 10° NNE 05:01:48 15° NE 05:01:48 15° NE
Cosmos 2322 Rocket 3.2 05:04:59 39° WNW 05:05:17 40° WNW 05:10:33 10° N
Cosmos 2333 Rocket 3.4 05:13:10 36° NNE 05:13:10 36° NNE 05:16:27 10° NNE
USA 215 3.3 05:05:49 10° NE 05:12:21 72° NW 05:12:52 69° WNW
Cosmos 1844 Rocket 3.7 05:10:37 10° N 05:14:32 40° NNE 05:14:32 40° NNE
Cosmos 2219 Rocket 3.5 05:31:29 34° NNE 05:31:29 34° NNE 05:34:33 10° NNE
Cosmos 2237 Rocket 4.2 06:02:09 19° ENE 06:02:09 19° ENE 06:04:02 10° NE
COSMOS 2428 3.9 06:05:46 38° N 06:05:46 38° N 06:09:13 10° NNE
Cosmos 2360 Rocket 4.3 06:09:13 18° WNW 06:09:50 18° WNW 06:13:40 10° NNW
ATLAS 3B R/B 3.8 06:04:24 10° NW 06:09:36 36° W 06:09:36 36° W
CZ-4C R/B 3.8 06:05:54 10° NNW 06:13:11 45° NE 06:14:45 41° E
NOSS 3-1 (C) 4.2 06:15:15 10° NNW 06:23:12 73° ENE 06:23:26 72° ENE
Cosmos 2278 Rocket 3.7 06:31:54 10° N 06:36:05 30° NE 06:36:05 30° NE
Lacrosse 5 4.2 06:43:42 17° NE 06:43:42 17° NE 06:44:56 10° NE
ATLAS CENTAUR R/B 4.3 06:36:58 10° NW 06:37:47 15° NW 06:37:47 15° NW
ATLAS 5 CENTAUR R/B 4.1 06:37:50 10° NNW 06:45:39 32° NNE 06:45:39 32° NNE
SL-16 R/B 4.2 06:49:47 19° ENE 06:49:47 19° ENE 06:52:05 10° NE
ADEOS Rocket 4.2 07:00:11 30° NW 07:00:11 30° NW 07:03:21 10° NNW
COSMOS 2455 4.4 07:18:09 26° E 07:18:09 26° E 07:21:48 10° NE
Cosmos 2315 Rocket 4.4 07:17:55 62° NNE 07:17:55 62° NNE 07:23:07 10° N
Cosmos 1709 Rocket 4.4 07:13:11 10° N 07:18:05 56° NNE 07:18:05 56° NNE
USA 267 3.3 07:26:11 74° N 07:26:11 74° N 07:32:16 10° NW
CZ-2D R/B 3.5 07:22:35 10° NNE 07:26:09 32° ENE 07:26:09 32° ENE
Lacrosse 5 rocket 4.1 07:36:40 16° NE 07:36:40 16° NE 07:37:32 10° NE
Meteor 2-5 Rocket 4.3 07:40:07 57° NNE 07:40:07 57° NNE 07:44:38 10° N
USA 229 DEB 3.8 07:32:44 10° NNW 07:40:08 82° W 07:40:08 82° W
USA 229 3.8 07:32:50 10° NNW 07:40:15 83° W 07:40:15 83° W
Cosmos 2237 Rocket 3.6 07:43:57 29° NW 07:43:57 29° NW 07:48:03 10° N
Centaur D-1AR AC-48 4.4 07:50:17 46° SSE 07:50:17 46° SSE 08:39:16 10° ESE
Centaur D-1AR AC-48 4.4 07:50:17 46° SSE 07:50:17 46° SSE 08:39:17 10° ESE
Resurs 1-4 Rocket 2.7 07:47:12 10° NNE 07:51:19 53° NE 07:51:19 53° NE
Cosmos 839 Rocket 4.3 07:46:59 10° NNW 07:53:40 81° WSW 07:53:40 81° WSW
CZ-4C R/B 3.9 07:54:31 10° NW 07:59:52 36° W 07:59:52 36° W
Cosmos 1943 Rocket 3.1 07:58:27 10° N 08:03:53 45° ENE 08:05:07 39° E
IDEFIX/ARIANE 42P 3.7 07:59:34 10° NNE 08:04:17 35° E 08:04:17 35° E
ADEOS II 2.9 08:00:43 10° NNE 08:05:23 44° E 08:05:23 44° E
Cosmos 2278 Rocket 4.0 08:16:03 10° NW 08:17:53 19° WNW 08:17:53 19° WNW
Lacrosse 5 3.5 08:22:52 24° NW 08:23:11 24° NW 08:27:20 10° NNE
NPP 3.8 08:22:37 10° N 08:27:35 64° NW 08:27:35 64° NW
Cosmos 1455 4.1 08:25:54 10° N 08:27:34 25° N 08:27:34 25° N
SL-16 R/B 3.0 08:31:39 37° WNW 08:31:39 37° WNW 08:36:42 10° N
Cosmos 2369 Rocket 4.0 08:29:10 10° N 08:33:59 29° ENE 08:38:46 10° ESE
Cosmos 2154 Rocket 4.1 08:28:30 10° N 08:34:50 71° E 08:36:42 47° SSE
Cosmos 1271 Rocket 3.9 08:35:04 10° N 08:38:05 42° NE 08:38:05 42° NE
AQUA 4.2 08:36:21 10° N 08:40:27 56° NW 08:40:27 56° NW
IRS P6 4.4 08:35:45 10° NNE 08:41:03 87° ESE 08:41:18 81° S
FALCON 9 R/B 4.1 08:08:56 10° WNW 08:41:17 67° SSW 08:48:57 10° SE
BREEZE-M DEB (TANK) 3.5 08:42:55 68° W 08:43:26 76° NW 08:46:40 10° NE
Cosmos 2228 3.9 08:41:04 10° N 08:45:13 43° E 08:45:55 39° ESE
SL-16 R/B 2.4 08:46:14 61° SSW 08:47:10 71° WSW 08:53:24 10° NNW
Cosmos 1603 3.7 08:53:54 55° S 08:55:03 71° ESE 09:00:41 10° NNE
Cosmos 2074 Rocket 4.2 08:51:12 10° NNW 08:57:13 50° W 08:57:47 48° WSW
Cosmos 1295 Rocket 4.4 08:56:03 10° N 09:02:22 74° W 09:04:25 45° SSW
COSMOS 2455 3.6 09:01:17 34° W 09:02:26 36° WNW 09:07:58 10° N
GPS 2-04 Rocket1 3.4 09:05:26 41° E 09:05:26 41° E 09:07:49 10° ENE
Cosmos 2327 Rocket 4.4 08:58:12 10° N 09:04:37 81° W 09:07:17 38° S
DNEPR-1 R/B 3.4 09:06:04 72° WNW 09:06:04 72° WNW 09:10:26 10° NNE
Cosmos 1328 3.9 09:06:30 66° ESE 09:06:41 67° E 09:10:38 10° NNE
CZ-2D R/B 3.5 09:03:11 10° NNW 09:07:14 23° WNW 09:07:28 23° WNW
Helios 1B rocket 3.2 09:12:02 10° NNE 09:15:58 46° E 09:17:16 33° SSE
CZ-3 R/B 4.5 08:18:19 10° WSW 09:21:04 77° S 09:34:52 10° E
MSX 4.0 09:15:55 10° N 09:21:33 55° WNW 09:23:24 39° SW
Cosmos 1606 Rocket 3.5 09:18:02 10° N 09:22:26 80° E 09:24:16 34° SSE
OAO 2 Rocket 3.2 09:21:48 46° WSW 09:23:18 89° NNW 09:28:15 10° ENE
Cosmos 1943 3.5 09:23:26 40° WSW 09:25:08 54° WNW 09:30:43 10° N
Helios 1A 3.4 09:28:06 42° W 09:28:06 42° W 09:31:55 10° NNW
Cosmos 2181 Rocket 3.9 09:25:18 25° S 09:29:06 87° E 09:35:18 10° N
Cosmos 1624 Rocket 4.0 09:27:33 33° S 09:30:02 80° ESE 09:35:21 10° NNE
Cosmos 962 Rocket 4.3 09:24:13 10° N 09:30:19 75° W 09:34:31 21° S
Meteor 1-11 4.5 09:26:54 21° S 09:30:48 71° E 09:36:34 10° NNE
SEDSat Delta rocket 4.0 09:28:00 34° WSW 09:31:04 68° SSE 09:37:45 10° E
Resurs 1-4 Rocket 4.1 09:29:32 10° NW 09:31:37 12° WNW 09:32:24 12° WNW
Lacrosse 4 Rocket 2.4 09:31:42 24° SSE 09:33:46 42° ESE 09:37:47 10° NE
Cosmos 1408 2.8 09:35:11 34° SSE 09:36:34 66° E 09:40:10 10° NNE
ARIANE 5 R/B 3.6 09:32:53 10° NNE 09:37:35 40° E 09:42:15 10° SSE
ATLAS 3B CENTAUR R/B 3.5 09:36:58 11° SSE 09:37:39 12° SE 09:39:20 10° ESE
Meteor 2-1 Rocket 4.1 09:32:03 10° N 09:37:45 79° W 09:42:22 15° S
Cosmos 1892 3.0 09:37:51 27° SSE 09:39:45 61° E 09:43:29 10° NNE
CBERS-1 4.0 09:35:59 10° N 09:41:04 71° WNW 09:43:43 29° SSW
Cosmos 2056 Rocket 3.4 09:39:27 31° SSW 09:41:57 79° WNW 09:47:13 10° NNE
Okean 1-7 Rocket 4.4 09:39:08 14° SSE 09:42:47 50° E 09:47:02 10° NNE
IDEFIX/ARIANE 42P 3.9 09:39:35 10° NNW 09:43:40 23° WNW 09:45:06 21° W
OAO 3 Copernicus 4.4 09:41:57 35° SW 09:43:57 62° SSE 09:48:55 10° E
ADEOS II 3.7 09:41:29 10° NNW 09:45:00 19° WNW 09:46:18 17° W
Cosmos 1943 Rocket 3.6 09:43:14 10° NW 09:46:34 19° W 09:46:34 19° W
FENGYUN 3A 3.7 09:43:50 10° NNE 09:49:14 85° ESE 09:53:29 17° SSW
ALOS 2.4 09:47:06 10° NNE 09:51:47 74° ESE 09:55:32 16° S
Cosmos 1892 Rocket 4.1 09:51:00 30° SW 09:52:34 42° W 09:56:50 10° N
Cosmos 2263 4.1 09:50:24 10° NNW 09:56:05 74° WSW 10:01:47 10° SSE
Cosmos 2251 Rocket 3.9 09:53:00 10° NNW 09:57:55 40° W 10:01:52 15° SSW
Cosmos 1726 Rocket 3.9 09:57:14 10° NNW 10:01:25 44° W 10:04:06 20° SSW
Cosmos 1190 Rocket 4.3 09:56:16 10° NNW 10:01:34 72° ENE 10:06:50 10° SSE
ATLAS 2A CENTAUR R/B 3.7 09:50:14 13° WSW 10:06:21 60° S 10:12:54 10° ESE
CZ-2C R/B 2.4 10:05:44 10° N 10:10:47 72° WNW 10:15:14 12° SSW
Meteor 1-29 2.7 10:09:45 10° NNE 10:13:01 89° ESE 10:15:48 13° SSW
PAYLOAD A 3.9 10:08:50 10° N 10:13:35 67° WNW 10:18:06 12° SSW
Cosmos 2366 rocket 4.1 10:08:10 10° NNW 10:14:10 56° W 10:20:14 10° SSW
Cosmos 2369 Rocket 2.9 10:13:03 10° NW 10:17:53 31° WSW 10:22:43 10° SSW
IRS-P3 4.1 10:13:18 10° N 10:18:36 68° WNW 10:23:52 10° SSW
Meteor 2-20 4.5 10:12:27 10° S 10:18:36 88° E 10:24:48 10° N
Cosmos 1656 Rocket 4.1 10:14:13 10° NW 10:19:12 38° WSW 10:24:11 10° S
SL-8 Rocket 4.5 10:14:43 10° NNW 10:20:33 40° W 10:26:21 10° SSW
In-Cosmos 22 Rocket 4.5 10:22:38 10° SSW 10:28:16 55° W 10:33:59 10° N
Chunghua 1 4.5 10:25:07 10° W 10:28:34 54° SSW 10:32:02 10° ESE
SL-08 R/B 3.7 10:26:39 10° SSE 10:31:11 65° ENE 10:35:46 10° N
DELTA 2 DEB (DPAF) 4.1 10:27:52 10° S 10:32:15 69° WSW 10:36:40 10° NNW
CZ-4C R/B 4.1 10:32:44 10° SSE 10:36:13 52° ENE 10:39:53 10° N
Cosmos 1869 3.2 10:32:36 10° N 10:36:31 84° W 10:40:21 10° S
Cosmos 1626 Rocket 4.0 10:32:31 10° SSW 10:36:42 42° W 10:40:52 10° N
Genesis I 3.5 10:35:20 10° NW 10:39:09 43° WSW 10:42:51 10° S
Cosmos 2058 Rocket 4.0 10:36:06 10° NNW 10:39:49 28° W 10:43:31 10° SSW
Cosmos 407 Rocket 4.4 10:35:51 10° NW 10:40:20 29° W 10:44:45 10° SSW
Meteor 1-27 4.2 10:35:04 10° NNW 10:40:47 74° W 10:46:23 10° S
GPS 2-04 Rocket1 3.0 10:40:02 10° W 10:43:24 53° N 10:46:55 10° ENE
Cosmos 1825 Rocket 4.4 10:41:18 10° S 10:45:37 55° E 10:49:56 10° NNE
Cosmos 1452 Rocket 3.6 10:41:31 10° SSW 10:46:44 64° WNW 10:51:59 10° N
SeaSat 1 2.8 10:42:15 10° NNE 10:47:03 53° WNW 10:51:48 10° SW
CZ-2C R/B 3.2 10:43:37 10° NNE 10:47:15 61° E 10:50:53 10° S
Cosmos 1633 2.5 10:45:55 10° SSW 10:49:25 66° W 10:52:57 10° N
DELTA 2 R/B (1) 4.4 10:47:52 10° SW 10:53:06 42° SE 10:58:19 10° ENE
Cosmos 2058 3.7 10:49:27 10° S 10:53:25 55° E 10:57:27 10° NNE
Cosmos 1825 3.5 10:51:49 10° SW 10:54:47 23° WNW 10:57:46 10° NNW
